Hourly Weather Roundup
Issued by NWS Central Illinois

Home | Current Version | Previous Version | Graphics & Text | Print | Product List | Glossary On
Versions: 1 2 3 4 5 6 7 8 9 10 11 12 13 14 15 16 17 18 19 20 21 22 23 24 25 26 27 28 29 30 31 32 33 34 35 36 37 38 39 40 41 42 43 44 45 46 47 48 49 50
216
NZUS43 KILX 232010
HWRILX

AREA WEATHER ROUNDUP
NATIONAL WEATHER SERVICE, LINCOLN IL
300 PM CDT THU MAR 23 2017


CITY           SKY/WX    TMP DP  RH WIND       PRES   REMARKS
BLOOMINGTON    CLOUDY    45  26  47 S17       30.19F
CHAMPAIGN      CLOUDY    49  23  36 S17       30.21F
DECATUR        CLOUDY    44  30  57 SE13      30.20F
EFFINGHAM      LGT RAIN  41  37  83 SE10G17   30.24F
FLORA          CLOUDY    43  37  82 SE12      30.24F
GALESBURG      RAIN      39  35  86 SE14G24   30.11F WCI  31
JACKSONVILLE   CLOUDY    43  39  85 SE16      30.14F
LACON          CLOUDY    42  29  58 SE10G18   30.17F
LAWRENCEVILLE  CLOUDY    48  32  53 S10       30.28F
LITCHFIELD     CLOUDY    43  39  86 SE15      30.17F
$$


CITY           SKY/WX    TMP DP  RH WIND       PRES   REMARKS
LINCOLN        LGT RAIN  43  36  76 SE14      30.18F
MACOMB         CLOUDY    41  39  95 SE17      30.13F WCI  32
MATTOON        CLOUDY    45  30  55 SE13      30.21F
MT CARMEL AP   CLOUDY    46  33  61 SE9       30.27F
OLNEY-NOBLE AP CLOUDY    43  36  75 SE8       30.25F
PARIS          CLOUDY    49  30  48 E9        30.25F
PEORIA         CLOUDY    41  33  73 SE13      30.17F WCI  34
PONTIAC        CLOUDY    47  28  47 S14G22    30.20F
RANTOUL        CLOUDY    50  27  40 S16       30.21F
SPRINGFIELD    CLOUDY    41  39  93 SE13      30.17F WCI  34
TAYLORVILLE    CLOUDY    39  37  93 SE10      30.18F WCI  32
$$

...REGIONAL REPORTS...


CITY           SKY/WX    TMP DP  RH WIND       PRES   REMARKS
CHICAGO O`HARE CLOUDY    49  23  36 S14G22    30.21F
KANKAKEE       CLOUDY    51  25  36 SE12      30.22F
MOLINE         CLOUDY    43  32  65 SE16G23   30.11F
MOUNT STERLING MOSUNNY   45  39  78 SE18G25   30.10F
MOUNT VERNON   MOSUNNY   49  41  74 SE10      30.22F
PITTSFIELD     PTSUNNY   48  40  72 SE17      30.12F
QUINCY         SUNNY     50  39  66 SE15G24   30.07F
ROCKFORD       CLOUDY    44  23  43 S20       30.20F
$$


CITY           SKY/WX    TMP DP  RH WIND       PRES   REMARKS
BURLINGTON     CLOUDY    44  44 100 SE17G25   30.07F
CEDAR RAPIDS   CLOUDY    39  37  92 SE16      30.03F WCI  30
DES MOINES     PTSUNNY   56  35  45 SE20G28   29.89F
KIRKSVILLE     SUNNY     64  37  36 SE20G26   29.97F
OTTUMWA        MOSUNNY   51  37  58 SE18G25   29.97F
ST LOUIS       PTSUNNY   53  39  59 SE14      30.14F
$$


CITY           SKY/WX    TMP DP  RH WIND       PRES   REMARKS
TERRE HAUTE    CLOUDY    51  25  36 S13       30.25F
EVANSVILLE     LGT RAIN  43  35  73 SE7       30.27F
INDIANAPOLIS   PTSUNNY   54  24  31 SE16      30.26F
LAFAYETTE      CLOUDY    51  24  34 S9G18     30.24F
MADISON        CLOUDY    45  19  35 S16       30.13F
MILWAUKEE      CLOUDY    42  23  46 SE15G22   30.21F WCI  34
$$






USA.gov is the U.S. government's official web portal to all federal, state and local government web resources and services.